Flag for Nepal Weather past 2 weeks in Pokhara, Nepal

Now
72 °F

Broken clouds.


Feels Like: 71 °F
Forecast: 67 / 87 °F
Wind: No wind

Location: Kathmandu Airport

Current Time: Jul 25, 2014 at 9:35:40 AM

Latest Report: Jul 25, 2014 at 8:35 AM


Visibility: 5 mi

Pressure: 29.89 "Hg

Humidity: 83%

Dew point: 66 °F

Location of PokharaLocation

Historic Weather in Pokhara — Graph

°F

Pokhara temperature yesterday

Maximum temperature yesterday: 75 °F (at 12:35 PM)
Minimum temperature yesterday: 68 °F (at 4:35 AM)
Average temperature yesterday: 71 °F

Past Weeks' High & Low Weather Summary

 TemperatureHumidityPressure
High86 °F (Jul 12, 1:35 PM)100% (Jul 11, 7:35 AM)29.89 "Hg (Jul 11, 7:35 AM)
Low68 °F (Jul 11, 6:35 AM)50% (Jul 21, 12:35 AM)29.62 "Hg (Jul 19, 4:35 PM)
Average75 °F79%29.78 "Hg
* Reported Jul 10 7:35 AM — Jul 25 7:35 AM, Pokhara, Weather by CustomWeather, © 2014

Note: Actual official high and low records may vary slightly from our data, if they occured in-between our weather recording intervals... More about our weather records

Advertising

Pokhara weather history for previous 24 hours

 ConditionsComfort  
Time TempWeatherWind HumidityBarometerVisibility
7:35 AM
Jul 25
70 °FMore clouds than sun.No wind88%29.89 "Hg4 mi
6:35 AM70 °FSprinkles. More clouds than sun.No wind88%29.86 "Hg4 mi
5:35 AM68 °FSprinkles. Mostly cloudy.No wind94%29.86 "Hg4 mi
4:35 AM68 °FRain. Mostly cloudy.No wind94%29.83 "Hg2 mi
3:35 AM68 °FRain. Mostly cloudy.No wind94%29.83 "Hg2 mi
2:35 AM70 °FRain. Mostly cloudy.No wind94%29.86 "Hg2 mi
1:35 AM70 °FRain. Mostly cloudy.No wind94%29.86 "Hg2 mi
12:35 AM70 °FRain. Mostly cloudy.No wind94%29.89 "Hg4 mi
10:35 PM
Jul 24
70 °FRain. Mostly cloudy.No wind94%29.89 "Hg4 mi
9:35 PM72 °FPartly cloudy.No wind88%29.89 "Hg4 mi
8:35 PM72 °FLight rain. Mostly cloudy.No wind88%29.86 "Hg4 mi
7:35 PM73 °FRain. Broken clouds.No wind78%29.83 "Hg4 mi
6:35 PM73 °FBroken clouds.3 mph83%29.80 "Hg5 mi
2:35 PM72 °FRain. More clouds than sun.No wind94%29.80 "Hg4 mi
1:35 PM72 °FLight rain. Broken clouds.6 mph83%29.80 "Hg4 mi
12:35 PM75 °FRain. More clouds than sun.No wind69%29.83 "Hg5 mi
11:35 AM72 °FRain. More clouds than sun.3 mph88%29.86 "Hg2 mi
10:35 AM72 °FRain. More clouds than sun.3 mph88%29.86 "Hg2 mi
9:35 AM72 °FRain. More clouds than sun.No wind88%29.86 "Hg3 mi
Weather by CustomWeather, © 2014

See weather overviewHow to use our weather pages